Flight Track Log - Related Links

Times and Time Zones

All times are in EDT time to prevent confusion due to time zone crossing. See the OPT335 flight status page for this flight to view local times or setup timezone preferences in your user account.

Time Position Orientation Groundspeed Altitude Reporting Facility
EDT Latitude Longitude Course Direction KTS MPH feet Rate Location/Type
Wed 03:06:21 PM 41.5780 -88.1100 200° South 200 230 3,100  Level FlightAware ADS-B
Wed 03:06:49 PM 41.5560 -88.0880 143° Southeast 217 250 4,500 2,700 Climbing FlightAware ADS-B
Wed 03:07:01 PM 41.5470 -88.0780 140° Southeast 228 262 4,900 857 Climbing FlightAware ADS-B
Wed 03:07:31 PM 41.5260 -88.0400 126° Southeast 265 305 5,100 1,038 Climbing FlightAware ADS-B
Wed 03:07:53 PM 41.5180 -88.0020 106° East 276 318 5,800 1,941 Climbing FlightAware ADS-B
Wed 03:08:39 PM 41.5280 -87.9270 80° East 284 327 7,300 2,300 Climbing FlightAware ADS-B
Wed 03:08:53 PM 41.5420 -87.9110 41° Northeast 295 339 8,100 3,545 Climbing FlightAware ADS-B
Wed 03:09:23 PM 41.5800 -87.8830 29° Northeast 312 359 9,900 3,771 Climbing FlightAware ADS-B
Wed 03:10:03 PM 41.6320 -87.8440 29° Northeast 320 368 12,500 3,512 Climbing FlightAware ADS-B
Wed 03:10:45 PM 41.6860 -87.8010 31° Northeast 337 388 14,700 2,835 Climbing FlightAware ADS-B
Wed 03:11:34 PM 41.7370 -87.7600 31° Northeast 341 392 16,800 3,632 Climbing FlightAware ADS-B
Wed 03:12:01 PM 41.7830 -87.7150 36° Northeast 337 388 19,300 4,533 Climbing FlightAware ADS-B
Wed 03:12:19 PM 41.7980 -87.6840 57° Northeast 341 392 20,200 3,200 Climbing FlightAware ADS-B
Wed 03:12:31 PM 41.8010 -87.6610 80° East 339 390 20,900 2,786 Climbing FlightAware ADS-B
Wed 03:13:15 PM 41.7970 -87.5670 93° East 356 410 22,800 2,429 Climbing FlightAware ADS-B
Wed 03:13:55 PM 41.8010 -87.4700 87° East 374 430 24,300 2,357 Climbing FlightAware ADS-B
Wed 03:14:39 PM 41.8100 -87.3650 83° East 382 440 26,100 2,429 Climbing FlightAware ADS-B
Wed 03:15:19 PM 41.8170 -87.2700 84° East 387 445 27,700 2,415 Climbing FlightAware ADS-B
Wed 03:16:01 PM 41.8250 -87.1690 84° East 392 451 29,400 2,214 Climbing FlightAware ADS-B
Wed 03:16:43 PM 41.8320 -87.0690 85° East 404 465 30,800 1,116 Climbing FlightAware ADS-B
Wed 03:17:27 PM 41.8410 -86.9530 84° East 438 504 31,000 143 Climbing FlightAware ADS-B
Wed 03:18:07 PM 41.8510 -86.8440 83° East 450 518 31,000  Level FlightAware ADS-B
Wed 03:18:49 PM 41.8740 -86.7310 75° East 456 525 31,000  Level FlightAware ADS-B
Wed 03:19:30 PM 41.8900 -86.6140 80° East 458 527 31,000  Level FlightAware ADS-B
Wed 03:20:09 PM 41.8970 -86.5060 85° East 461 531 31,000  Level FlightAware ADS-B
Wed 03:20:51 PM 41.9050 -86.3840 85° East 463 533 31,000  Level FlightAware ADS-B
Wed 03:21:29 PM 41.9120 -86.2780 85° East 464 534 31,000  Level FlightAware ADS-B
Wed 03:22:33 PM 41.9230 -86.0940 85° East 464 534 31,000  Level FlightAware ADS-B
Wed 03:23:12 PM 41.9290 -85.9860 86° East 463 533 31,000  Level FlightAware ADS-B
Wed 03:23:55 PM 41.9370 -85.8580 85° East 464 534 31,000  Level FlightAware ADS-B
Wed 03:24:31 PM 41.9420 -85.7570 86° East 464 534 31,000  Level FlightAware ADS-B
Wed 03:25:17 PM 41.9500 -85.6240 85° East 463 533 31,000  Level FlightAware ADS-B
Wed 03:26:03 PM 41.9570 -85.4900 86° East 460 529 31,000  Level FlightAware ADS-B
Wed 03:26:46 PM 41.9630 -85.3690 86° East 460 529 31,000  Level FlightAware ADS-B
Wed 03:27:43 PM 41.9720 -85.2070 86° East 460 529 31,000  Level FlightAware ADS-B
Wed 03:28:40 PM 41.9800 -85.0580 86° East 460 529 31,000  Level FlightAware ADS-B
Wed 03:29:32 PM 41.9870 -84.8980 87° East 457 526 31,000  Level FlightAware ADS-B
Wed 03:30:12 PM 41.9920 -84.8020 86° East 457 526 31,000  Level FlightAware ADS-B
Wed 03:30:57 PM 41.9990 -84.6670 86° East 458 527 31,000  Level FlightAware ADS-B
Wed 03:31:38 PM 42.0040 -84.5410 87° East 459 528 31,000 -538 Level FlightAware ADS-B
Wed 03:32:15 PM 42.0090 -84.4310 86° East 470 541 30,300 -1,171 Descending FlightAware ADS-B
Wed 03:33:00 PM 42.0150 -84.2990 86° East 474 545 29,400 -1,133 Descending FlightAware ADS-B
Wed 03:33:45 PM 42.0200 -84.1690 87° East 472 543 28,600 -571 Descending FlightAware ADS-B
Wed 03:34:24 PM 42.0250 -84.0720 86° East 472 543 28,600 -1,231 Level FlightAware ADS-B
Wed 03:35:03 PM 42.0300 -83.9420 87° East 461 531 27,000 -1,784 Descending FlightAware ADS-B
Wed 03:35:38 PM 42.0330 -83.8530 87° East 458 527 26,400 -462 Descending FlightAware ADS-B
Wed 03:36:21 PM 42.0370 -83.7490 87° East 458 527 26,400  Level FlightAware ADS-B
Wed 03:36:57 PM 42.0410 -83.6620 86° East 458 527 26,400 -2,031 Level FlightAware ADS-B
Wed 03:37:26 PM 42.0450 -83.5410 87° East 455 524 24,200 -1,973 Descending FlightAware ADS-B
Wed 03:38:10 PM 42.0450 -83.4190 90° East 438 504 24,000 -143 Descending FlightAware ADS-B
Wed 03:38:50 PM 42.0440 -83.4130 103° East 439 505 24,000 -741 Level FlightAware ADS-B
Wed 03:39:31 PM 42.0230 -83.1960 97° East 443 510 23,000 -1,244 Descending FlightAware ADS-B
Wed 03:40:12 PM 42.0150 -83.1160 98° East 445 512 22,300 -535 Descending FlightAware ADS-B
Wed 03:41:12 PM 42.0080 -83.0330 96° East 448 516 22,100 -125 Descending FlightAware ADS-B
Wed 03:41:48 PM 42.0000 -82.9480 97° East 448 516 22,100 -1,670 Level FlightAware ADS-B
Wed 03:42:49 PM 41.9820 -82.7700 98° East 452 520 19,400 -2,913 Descending FlightAware ADS-B
Wed 03:43:31 PM 41.9660 -82.6170 98° East 437 503 17,100 -2,854 Descending FlightAware ADS-B
Wed 03:44:11 PM 41.9540 -82.5360 101° East 423 487 15,500 -1,185 Descending FlightAware ADS-B
Wed 03:44:52 PM 41.9360 -82.4480 105° East 423 487 15,500  Level FlightAware ADS-B
Wed 03:45:41 PM 41.9130 -82.3430 106° East 423 487 15,500  Level FlightAware ADS-B
Wed 03:46:17 PM 41.8970 -82.2660 106° East 423 487 15,500 -5,015 Level FlightAware ADS-B
Wed 03:46:48 PM 41.7930 -82.1610 143° Southeast 299 344 9,900 -5,194 Descending FlightAware ADS-B
Wed 03:47:24 PM 41.7580 -82.1100 133° Southeast 300 345 9,700 -160 Descending FlightAware ADS-B
Wed 03:48:03 PM 41.7280 -82.0650 132° Southeast 300 345 9,700  Level FlightAware ADS-B
Wed 03:48:30 PM 41.7060 -82.0330 133° Southeast 300 345 9,700 -3,115 Level FlightAware ADS-B
Wed 03:48:55 PM 41.6760 -81.9900 133° Southeast 295 339 7,000 -3,907 Descending FlightAware ADS-B
Wed 03:49:13 PM 41.6590 -81.9650 132° Southeast 283 326 6,900 -143 Descending FlightAware ADS-B
Wed 03:49:37 PM 41.6390 -81.9330 130° Southeast 274 315 6,900  Level FlightAware ADS-B
Wed 03:50:04 PM 41.6180 -81.9000 130° Southeast 279 321 6,900  Level FlightAware ADS-B
Wed 03:50:22 PM 41.6100 -81.8680 108° East 290 334 6,900 -261 Level FlightAware ADS-B
Wed 03:50:50 PM 41.5980 -81.8180 108° East 294 338 6,700 -1,179 Descending FlightAware ADS-B
Wed 03:51:18 PM 41.5870 -81.7700 107° East 279 321 5,800 -1,925 Descending FlightAware ADS-B
Wed 03:51:43 PM 41.5730 -81.7370 120° Southeast 256 295 5,000 -2,000 Descending FlightAware ADS-B
Wed 03:52:09 PM 41.5500 -81.7110 140° Southeast 243 280 4,100 -2,077 Descending FlightAware ADS-B
Wed 03:52:35 PM 41.5220 -81.6980 161° South 231 266 3,200 -1,180 Descending FlightAware ADS-B
Wed 03:53:10 PM 41.4940 -81.7240 215° Southwest 211 243 2,900 -419 Descending FlightAware ADS-B
Wed 03:53:18 PM 41.4890 -81.7320 230° Southwest 210 242 2,900 -158 Level FlightAware ADS-B
Wed 03:53:48 PM 41.4720 -81.7590 230° Southwest 176 203 2,800 -250 Descending FlightAware ADS-B
Wed 03:54:06 PM 41.4640 -81.7720 231° Southwest 151 174 2,700 -667 Descending FlightAware ADS-B
Wed 03:54:33 PM 41.4530 -81.7890 229° Southwest 126 145 2,300 -1,053 Descending FlightAware ADS-B
Wed 03:55:03 PM 41.4420 -81.8070 231° Southwest 121 139 1,700 -1,091 Descending FlightAware ADS-B
Wed 03:55:28 PM 41.4330 -81.8210 229° Southwest 118 136 1,300 -878 Descending FlightAware ADS-B
Wed 03:55:44 PM 41.4270 -81.8300 228° Southwest 112 129 1,100 -682 Descending FlightAware ADS-B
Wed 03:56:12 PM 41.4190 -81.8440 233° Southwest 104 120 800 -333 Descending FlightAware ADS-B
Wed 03:56:38 PM 41.4120 -81.8540 227° Southwest 104 120 800  Level FlightAware ADS-B
Wed 04:04:00 PM 41.4094 -81.8547 230° Southwest  Level Estimated

Login

Don't have an account? Register now (free) for customized features, flight alerts, and more!